Showing default

POEM, 52939

Orbit data source: Space-Track

POEM, 52939 is a payload satellite owned by ISRO (IN) in LEO that was launched on Thu, 30 Jun 2022 UTC via a PSLV launch vehicle from the Sirharikota (SRI). Payload-class satellites include a variety of spacecraft equipped with specific instruments for various scientific and technological missions. These include communications satellites like Starlink; space stations such as the ISS; scientific satellites like the Hubble; Earth observation satellites from companies like Planet Labs, Umbra, and HawkEye 360; GPS; miniature CubeSats for education and research; and military/defense satellites.

Not visible in the next 10 days
Identifier
52939, 2022-072E
Orbit
LEO
Country
Flag of ININ / IND
Related business
Manufacturer
ISRO SAC/Banga
Mission
Operational Civil Technology
Bus & Motor
POEM, Unknown motor
Mass
50 kg wet, ~50 kg dry
Launch date (UTC)
2022-06-30 (4 years ago)
Launch vehicle
PSLV
Launch site
Sirharikota (SRI)
Object type
Payload
Rocket body
Debris
Shape & HBR
Cyl + Box, 1.8 m
Radar Cross Section
5.588 m², Large (>1 m²)

Expand to show TLE details & history
Last TLE update: 17 hours ago

TLE from 17 hours ago
0 POEM
1 52939U 22072E   26164.42034778  .00007094  00000-0  24345-3 0  9996
2 52939   9.9510  99.3230 0022746 144.1126 216.0620 15.24041438218932
Epoch: 2026-06-13T10:05Z
TLE epoch observation values (Epoch: 2026-06-13T10:05:18.048Z)
Latitude
-0°
Longitude
46.26209°
Altitude
503.308 km
Speed
7.609 km/s
True Right ascension
06h 37m 17s
True Declination
0° 00' 00"
Sunlit
Object was in daylight at epoch
Visualization orbit readout
Latitude
Unknown
Longitude
Unknown
Altitude
Unknown
Speed
Unknown
Apparent Right ascension
Unknown
Apparent Declination
Unknown
Sunlit
N/A
Visualization observer readout
Local Sidereal Time
13:12:47
Azimuth
Unknown
Elevation
Unknown
Doppler factor
Unknown
Orbital elements
Apogee altitude
515.44 km
Perigee altitude
484.151 km
Semi-major axis
6,877.933 km
Eccentricity
0.00227
Inclination
9.951°
RAAN
99.323°
Arg. of periapsis
144.1126°
True anomaly
215.90892°
Mean anomaly
216.062°
Eccentric anomaly
215.98542°
Mean motion
3.80501 °/min
Orbital period
94.61 mins
BSTAR
0.00024345
Loading maneuver chart data...
Computing Atmospheric mass density...
Loading historical data...
Loading historical data...
Loading historical data...
Loading historical data...
Loading historical data...
Loading historical data...
Loading historical data...
Other satellites on launch #72 in the year 2022 (2022-06-30 UTC)

Documentation

Showing up to 5 results
|